Home > Weather > Hallein > Past weeks

Flag for Austria Past Weather in Hallein, Salzburg, Austria — Yesterday and Last 2 Weeks

Now
84 °F

Passing clouds.


Feels Like: 85 °F
Forecast: 62 / 81 °F
Wind: 8 mph from North

Location: Salzburg-Flughafen

Current Time: Aug 27, 2016 at 7:17:40 PM

Latest Report: Aug 27, 2016 at 6:20 PM


Visibility: N/A

Pressure: 30.07 "Hg

Humidity: 48%

Dew Point: 63 °F

Location of HalleinLocation

Past Weather in Hallein — Graph

°F

Hallein Temperature Yesterday

Maximum temperature yesterday: 86 °F (at 4:20 PM)
Minimum temperature yesterday: 54 °F (at 5:20 AM)
Average temperature yesterday: 71 °F

High & Low Weather Summary for the Past Weeks

 TemperatureHumidityPressure
High86 °F (Aug 26, 4:20 PM)100% (Aug 12, 7:20 PM)30.42 "Hg (Aug 12, 7:20 PM)
Low54 °F (Aug 22, 12:20 AM)40% (Aug 20, 2:50 PM)29.83 "Hg (Aug 18, 2:20 PM)
Average67 °F77%30.13 "Hg
* Reported Aug 12 5:20 PM — Aug 27 5:50 PM, Hallein, Weather by CustomWeather, © 2016

Note: Actual official high and low records may vary slightly from our data, if they occured in-between our weather recording intervals... More about our weather records

Advertising

Hallein Weather History for the Previous 24 Hours

Scroll right to see more
 ConditionsComfort  
Time TempWeatherWind HumidityBarometerVisibility
5:50 PM
Sat, Aug 27
84 °FSunny.8 mph45%30.07 "Hg10 mi
5:20 PM86 °FPassing clouds.7 mph46%30.07 "HgN/A
4:50 PM86 °FPassing clouds.5 mph49%30.07 "HgN/A
4:20 PM86 °FPassing clouds.6 mph46%30.07 "HgN/A
3:50 PM86 °FPassing clouds.7 mph49%30.07 "HgN/A
3:20 PM86 °FPassing clouds.9 mph55%30.09 "HgN/A
2:50 PM86 °FPassing clouds.7 mph52%30.09 "HgN/A
2:20 PM86 °FPassing clouds.7 mph52%30.09 "HgN/A
1:50 PM84 °FPassing clouds.6 mph55%30.09 "HgN/A
1:20 PM84 °FPassing clouds.8 mph58%30.12 "HgN/A
12:50 PM82 °FPassing clouds.6 mph62%30.12 "HgN/A
12:20 PM82 °FPassing clouds.6 mph62%30.12 "HgN/A
11:50 AM81 °FPassing clouds.5 mph58%30.12 "HgN/A
11:20 AM81 °FPassing clouds.3 mph58%30.12 "HgN/A
10:50 AM79 °FPassing clouds.6 mph61%30.12 "HgN/A
10:20 AM77 °FPassing clouds.6 mph61%30.12 "HgN/A
9:50 AM75 °FPassing clouds.6 mph65%30.12 "HgN/A
9:20 AM73 °FSunny.8 mph69%30.12 "Hg10 mi
8:50 AM72 °FSunny.10 mph73%30.12 "Hg10 mi
8:20 AM70 °FSunny.9 mph73%30.12 "Hg10 mi
7:50 AM68 °FSunny.8 mph78%30.12 "Hg10 mi
7:20 AM68 °FFog.9 mph78%30.12 "HgN/A
6:50 AM66 °FFog.8 mph83%30.12 "HgN/A
6:20 AM66 °FFog.8 mph83%30.12 "HgN/A
5:50 AM64 °FClear.5 mph88%30.12 "Hg10 mi
5:20 AM64 °FPassing clouds.6 mph88%30.12 "HgN/A
4:50 AM64 °FMild.3 mph94%30.15 "HgN/A
4:20 AM64 °FPassing clouds.2 mph94%30.15 "HgN/A
3:50 AM64 °FPassing clouds.3 mph94%30.15 "HgN/A
3:20 AM66 °FPassing clouds.2 mph88%30.15 "HgN/A
2:50 AM64 °FPassing clouds.3 mph94%30.12 "HgN/A
2:20 AM66 °FMild.3 mph94%30.12 "HgN/A
1:50 AM66 °FMild.1 mph94%30.12 "HgN/A
1:20 AM66 °FPassing clouds.2 mph94%30.12 "HgN/A
12:50 AM66 °FPassing clouds.2 mph94%30.12 "HgN/A
12:20 AM68 °FPassing clouds.2 mph94%30.12 "HgN/A
11:50 PM
Fri, Aug 26
68 °FMild.5 mph88%30.12 "HgN/A
11:20 PM68 °FMild.3 mph94%30.12 "HgN/A
10:50 PM70 °FClear.5 mph88%30.12 "Hg10 mi
10:20 PM70 °FClear.3 mph88%30.12 "Hg10 mi
9:50 PM70 °FClear.5 mph88%30.12 "Hg10 mi
9:20 PM73 °FClear.2 mph83%30.12 "Hg10 mi
8:50 PM73 °FSunny.2 mph83%30.12 "Hg10 mi
8:20 PM77 °FSunny.6 mph74%30.09 "Hg10 mi
7:50 PM81 °FSunny.3 mph66%30.09 "Hg10 mi
7:20 PM82 °FPassing clouds.3 mph58%30.09 "HgN/A
Weather by CustomWeather, © 2016

See weather overviewHow to use our weather pages